Location: Ottawa
(45.4167°N, 75.7000°W)
Time: 05:31:11
(UTC-05:00)

N. Korean satellite - Pass Details

Date: 11 October 2017
Orbit: 461 x 513 km, 97.2° (Epoch: 11 December)

Event Time Altitude Azimuth Distance (km) Brightness Sun altitude
Rises 19:01:54 0° 167° (SSE) 2,558 10.1 -7.4°
Reaches altitude 10° 19:03:59 10° 168° (SSE) 1,672 9.2 -7.8°
Maximum altitude 19:07:35 86° 258° (WSW) 490 6.6 -8.4°
Drops below altitude 10° 19:11:09 10° 347° (NNW) 1,657 9.4 -9.1°
Sets 19:13:12 0° 348° (NNW) 2,532 10.4 -9.4°
